Location: Newark
(10.6000°N, 104.1667°E)
Time: 18:09:52
(UTC+00:00)

Hubble Space Telescope - Visible Passes

Search period start: 12 November 2019 00:00
Search period end: 22 November 2019 00:00
Orbit: 536 x 540 km, 28.5° (Epoch: 12 November)

Date Brightness Start Highest point End Pass type
(mag) Time Alt. Az. Time Alt. Az. Time Alt. Az.
12 Nov 2.1 11:14:36 10° SSW 11:18:10 28° SSE 11:21:00 14° E visible
12 Nov 3.5 12:55:18 10° W 12:56:21 17° W 12:56:21 17° W visible
12 Nov 0.6 21:28:31 78° NW 21:28:46 88° NNE 21:32:54 10° ESE visible
13 Nov 1.6 11:03:42 10° SW 11:07:34 39° SSE 11:11:14 11° E visible
13 Nov 3.1 12:44:57 10° W 12:46:35 21° WNW 12:46:35 21° WNW visible
13 Nov 1.1 21:18:45 57° SSE 21:18:45 57° SSE 21:22:17 10° SE visible
14 Nov 1.1 10:52:56 10° SW 10:56:58 56° SSE 11:01:01 10° ENE visible
14 Nov 2.9 12:34:41 10° W 12:36:48 22° WNW 12:36:48 22° WNW visible
14 Nov 2.2 21:08:59 32° SSE 21:08:59 32° SSE 21:11:33 10° SE visible
15 Nov 2.8 12:24:32 10° WNW 12:26:58 20° NW 12:26:58 20° NW visible
15 Nov 3.0 20:59:12 19° SSE 20:59:12 19° SSE 21:00:42 10° SSE visible
16 Nov 2.9 12:14:30 10° WNW 12:17:07 17° NNW 12:17:07 17° NNW visible
16 Nov 3.6 20:49:22 12° SSE 20:49:22 12° SSE 20:49:42 10° SSE visible
17 Nov 3.1 12:04:37 10° NW 12:06:46 14° NNW 12:07:13 14° N visible
18 Nov 3.2 11:55:00 10° NW 11:56:20 11° NNW 11:57:17 11° N visible
